Hatteras, NC

1:13 PM EDT on July 27, 2017 (GMT -0400)
Mitchell

Weather History for KHSE - December, 2012

Change the Weather History Date:

Wednesday, December 5, 2012

  Actual Average Record
Temperature  
Mean Temperature 61 °F 52 °F  
Max Temperature 68 °F 59 °F 77 °F (1982)
Min Temperature 53 °F 46 °F 30 °F (1960)
Degree Days  
Heating Degree Days 4 13  
Month to date heating degree days 41 63  
Since 1 July heating degree days 478 381  
Cooling Degree Days 0 0  
Month to date cooling degree days 0 0  
Year to date cooling degree days 2090 1711  
Growing Degree Days 10 (Base 50)    
Moisture  
Dew Point 52 °F    
Average Humidity 83    
Maximum Humidity 100    
Minimum Humidity 66    
Precipitation  
Precipitation T in 0.14 in 3.47 in (1938)
Month to date precipitation T 0.68  
Year to date precipitation 51.25 54.45  
Snow  
Snow 0.00 in - - ()
Month to date snowfall 0.0  
Since 1 July snowfall 0.0  
Snow Depth 0.00 in    
Sea Level Pressure  
Sea Level Pressure 30.16 in    
Wind  
Wind Speed 8 mph (WNW)    
Max Wind Speed 14 mph    
Max Gust Speed 22 mph    
Visibility 10 miles    
Events Rain    
T = Trace of Precipitation, MM = Missing Value Source: NWS Daily Summary

Daily Weather History Graph

Daily Weather History Graph

Search for Another Location

Airport or City:

Trip Planner

Search our weather history database for the weather conditions in past years. The results will help you decide how hot, cold, wet, or windy it might be!

Date:

Astronomy

Dec. 05, 2012 Rise Set
Actual Time 6:56 AM EST 4:50 PM EST
Civil Twilight 6:28 AM EST 5:18 PM EST
Nautical Twilight 5:57 AM EST 5:49 PM EST
Astronomical Twilight 5:26 AM EST 6:20 PM EST
Moon 11:26 PM EST (12/5) 11:28 AM EST (12/5)
Length of Visible Light 10h 49m
Length of Day
9h 53m
Waning Gibbous, 60% of the Moon is Illuminated
Dec 5
Waning Gibbous
Dec 6
Last Quarter
Dec 13
New
Dec 20
First Quarter
Dec 28
Full

Hourly Weather History & Observations

Time (EST) Temp. Dew Point Humidity Pressure Visibility Wind Dir Wind Speed Gust Speed Precip Events Conditions
12:51 AM 60.1 °F 57.0 °F 90% 30.20 in 10.0 mi WSW 6.9 mph - N/A   Scattered Clouds
1:51 AM 59.0 °F 57.0 °F 93% 30.20 in 10.0 mi SW 6.9 mph - N/A   Mostly Cloudy
2:51 AM 60.1 °F 57.0 °F 90% 30.19 in 10.0 mi West 8.1 mph - N/A   Overcast
3:51 AM 59.0 °F 57.0 °F 93% 30.17 in 10.0 mi WSW 6.9 mph - N/A   Clear
4:51 AM 61.0 °F 57.0 °F 87% 30.16 in 10.0 mi West 9.2 mph - N/A   Clear
5:51 AM 59.0 °F 57.0 °F 93% 30.16 in 10.0 mi WSW 9.2 mph - N/A   Clear
6:51 AM 57.0 °F 55.9 °F 96% 30.17 in 9.0 mi WSW 5.8 mph - N/A   Clear
7:51 AM 57.9 °F 57.0 °F 97% 30.17 in 10.0 mi WSW 6.9 mph - N/A   Clear
9:51 AM 64.0 °F 57.0 °F 78% 30.18 in 10.0 mi West 10.4 mph 19.6 mph N/A   Clear
10:51 AM 64.9 °F 55.9 °F 73% 30.17 in 10.0 mi West 12.7 mph 18.4 mph N/A   Clear
11:51 AM 64.0 °F 55.9 °F 75% 30.13 in 10.0 mi West 9.2 mph 17.3 mph N/A   Overcast
12:51 PM 66.0 °F 55.9 °F 70% 30.11 in 10.0 mi West 9.2 mph 18.4 mph N/A   Mostly Cloudy
1:51 PM 66.0 °F 55.9 °F 70% 30.09 in 10.0 mi West 8.1 mph 16.1 mph N/A   Mostly Cloudy
2:51 PM 64.0 °F 55.0 °F 73% 30.09 in 10.0 mi West 6.9 mph - N/A   Mostly Cloudy
3:51 PM 59.0 °F 54.0 °F 83% 30.12 in 10.0 mi NE 6.9 mph 16.1 mph N/A   Overcast
4:51 PM 55.9 °F 50.0 °F 80% 30.13 in 10.0 mi NNE 10.4 mph 18.4 mph N/A   Overcast
5:51 PM 55.0 °F 48.0 °F 77% 30.15 in 10.0 mi NNE 10.4 mph 19.6 mph N/A   Scattered Clouds
6:51 PM 54.0 °F 46.9 °F 77% 30.17 in 10.0 mi NE 9.2 mph 18.4 mph N/A   Overcast
7:05 PM 53.6 °F 46.4 °F 77% 30.17 in 10.0 mi NE 6.9 mph 16.1 mph N/A   Overcast
7:51 PM 55.0 °F 46.0 °F 72% 30.17 in 10.0 mi Variable 5.8 mph - N/A   Overcast
8:42 PM 55.4 °F 44.6 °F 67% 30.19 in 10.0 mi Variable 6.9 mph - N/A   Overcast
8:51 PM 55.0 °F 45.0 °F 69% 30.19 in 10.0 mi NNE 8.1 mph - N/A   Overcast
9:51 PM 55.0 °F 44.1 °F 67% 30.19 in 10.0 mi Variable 4.6 mph - N/A   Overcast
10:51 PM 55.0 °F 42.1 °F 62% 30.20 in 10.0 mi NNE 9.2 mph - 0.00 in Rain Light Rain
11:51 PM 55.0 °F 43.0 °F 64% 30.20 in 10.0 mi NE 6.9 mph - 0.00 in   Overcast